Погода в Пршерове

Чехия     49°27′07″N   17°26′57″E
темп.,
°C
ветер,
м/с
пор.,
м/с
влажн.,
%
обл.,
%
осадки,
мм/ч
давл.,
гПа
погр.,
м
20 января, чт
чт2001:000ююз51289100 0.1 1019674
04:00−1юз41198100 0.8 1017498
07:00+2зюз71383100 1.8 1016802
10:00+2з6117159 0.2 10151185
13:00+1зсз81395100 0.8 10141071
16:00−1сз814656 0.5 1016964
19:00−1зсз61375100 0.5 1017691
22:00−2з41189100 0.2 10181044
21 января, пт
пт2101:00−2сз8138240 0.3 1018709
04:00−3сз7127491 0.1 10211076
07:00−4зсз5128797 0.2 1022973
10:00−3сз812697 0.1 10241027
13:00−1сз712635 0.1 10221142
16:00−2сз61167100 0.0 1022850
19:00−3зсз4992100 0.4 1023757
22:00−3сз5118033 0.8 1024653
22 января, сб
сб2201:00−4зсз5984100 0.9 1024489
04:00−3сз4118449 0.0 1024427
07:00−5сз269315 0.0 1023161
10:00−3ссв248320 0.0 1023256
13:000с366899 0.1 10241067
16:00−2св37722 0.1 1027195
19:00−5с22833 0.1 102922
22:00−6св11853 0.0 103016
23 января, вс
вс2301:00−7ссв118754 0.0 103014
04:00−7ссв118690 0.0 103014
07:00−8всв118749 0.0 103115
10:00−5св12796 0.0 1032152
13:00−1ссв36639 0.0 1031932
16:00−3св34796 0.0 103287
19:00−4ссв398423 0.0 1034276
22:00−5с268726 0.0 1035133
24 января, пн
пн2401:00−6с239120 0.0 103564
04:00−7ссв229318 0.0 103531
07:00−7св229550 0.0 103644
10:00−5всв228521 0.0 1036213
13:00−2з11716 0.0 1035403
16:00−3ю1178100 0.0 103410
19:00−4ююв1183100 0.0 103413
22:00−4ю1179100 0.0 103433